This is the latest recevied weather packets stored in our database for station/object W4VCO. If no packets are shown the sender has not sent any weather packets the latest 10 day(s).
| Time | Temp. | Humidity | Pressure | Rain* | Wind** | Luminosity | Snow |
|---|---|---|---|---|---|---|---|
| 1777876219 | 17.78° C | 85% | 1014.5 hPa | 0 mm | - | - | - |
| 1777875623 | 17.78° C | 85% | 1014.7 hPa | 0 mm | - | - | - |
| 1777874117 | 17.78° C | 84% | 1014.9 hPa | 0 mm | - | - | - |
| 1777873515 | 18.33° C | 84% | 1014.8 hPa | 0 mm | - | - | - |
| 1777872620 | 18.33° C | 83% | 1014.8 hPa | 0 mm | - | - | - |
| 1777872020 | 18.33° C | 82% | 1015.1 hPa | 0 mm | - | - | - |
| 1777871718 | 18.33° C | 82% | 1015.3 hPa | 0 mm | - | - | - |
| 1777871113 | 18.89° C | 82% | 1015.5 hPa | 0 mm | - | - | - |
| 1777868716 | 18.89° C | 79% | 1015.8 hPa | 0 mm | - | - | - |
| 1777867514 | 19.44° C | 79% | 1016 hPa | 0 mm | - | - | - |
| 1777865120 | 20° C | 75% | 1016 hPa | 0 mm | - | - | - |
| 1777862420 | 20.56° C | 73% | 1016 hPa | 0 mm | - | - | - |
| 1777861519 | 20.56° C | 73% | 1015.9 hPa | 0 mm | - | - | - |
| 1777861222 | 20.56° C | 72% | 1015.9 hPa | 0 mm | - | - | - |
| 1777860918 | 20.56° C | 72% | 1016 hPa | 0 mm | - | - | - |
| 1777860020 | 20.56° C | 72% | 1015.9 hPa | 0 mm | - | - | - |
| 1777859716 | 20.56° C | 72% | 1015.6 hPa | 0 mm | - | - | - |
| 1777858819 | 20.56° C | 72% | 1015.7 hPa | 0 mm | - | - | - |
| 1777858220 | 21.11° C | 72% | 1015.7 hPa | 0 mm | - | - | - |
| 1777857916 | 21.11° C | 71% | 1015.5 hPa | 0 mm | - | - | - |
| 1777854916 | 21.67° C | 67% | 1015.1 hPa | 0 mm | - | - | - |
| 1777854317 | 22.22° C | 66% | 1014.9 hPa | 0 mm | - | - | - |
| 1777853719 | 22.78° C | 65% | 1014.7 hPa | 0 mm | - | - | - |
| 1777852517 | 23.33° C | 63% | 1014.7 hPa | 0 mm | - | - | - |
| 1777851317 | 24.44° C | 61% | 1014.6 hPa | 0 mm | - | - | - |
* Rain latest hour (hover to see other rain measurements)
** Current wind speed in m/s (hover to see current wind gust speed)